Starlink 31177

operational
NORAD ID: 58873 Int'l Des: 2024-019 Owner: SPXS Country: US Constellation: starlink
LEOCIRCULAR

About Starlink 31177

Description loading...

Live Position

Loading 3D Globe...

Upcoming Passes

Altitude History

Altitude vs Time

uPlot chart will show altitude changes over time

Two-Line Element Set

1 58873U 24019W 25305.58518962 .00002102 00000-0 85891-4 0 9996
2 58873 43.0066 252.1184 0001603 268.7603 91.3065 15.27586465 99491
Epoch: Nov 1, 2025 • Age: 16 hours

Current Status

Altitude 482.5 km
Velocity 7.63 km/s
Sub-Earth Point 13.66°N, 85.05°W
Launch Date Jan 29, 2024
Age 1.7 years
Type internet

Technical Details

Classification Payload
Mass 730.00 kg
Dry Mass 700.00 kg
Total Mass 730.00 kg
Length 0.30 m
Diameter 4.10 m
Span 29.00 m
Shape Box + pan
Manufacturer SPXS
Bus Type Starlink V2M
Phase Status In Orbit
Owner/State SPXS/US

Large Constellations

Loading constellations...